Location: Penton Mewsey
(51.2167°N, 1.5167°W)
Time: 23:16:39
(UTC+00:00)

Envisat - Pass Details

Date: 08 March 2021
Orbit: 764 x 766 km, 98.1° (Epoch: 22 April)

Event Time Altitude Azimuth Distance (km) Brightness Sun altitude
Rises 05:10:58 0° 20° (NNE) 3,247 6.7 -14.0°
Reaches altitude 10° 05:13:28 10° 29° (NNE) 2,316 6.0 -13.6°
Maximum altitude 05:18:10 36° 96° (E) 1,198 4.7 -12.9°
Drops below altitude 10° 05:22:50 10° 163° (SSE) 2,298 5.6 -12.2°
Sets 05:25:18 0° 171° (S) 3,219 6.3 -11.8°
